EN

Hourly Weather Montebello

Today, 24 October, Saturday

Time Temperature Precipitation Wind Pressure Humidity
00:00 +21°C° 0 mm 1 mps 755 mmHg 77%
01:00 +20°C° 0 mm 1 mps 755 mmHg 78%
02:00 +20°C° 0 mm 1 mps 755 mmHg 78%
03:00 +20°C° 0 mm 1 mps 755 mmHg 79%
04:00 +20°C° 0 mm 1 mps 754 mmHg 79%
05:00 +20°C° 0 mm 1 mps 755 mmHg 78%
06:00 +21°C° 0 mm 1 mps 755 mmHg 77%
07:00 +21°C° 0 mm 1 mps 755 mmHg 76%
08:00 +21°C° 0 mm 1 mps 755 mmHg 72%
09:00 +22°C° 0 mm 1 mps 755 mmHg 68%
10:00 +22°C° 0 mm 1 mps 755 mmHg 65%
11:00 +23°C° 0 mm 2 mps 754 mmHg 62%
12:00 +24°C° 0 mm 2 mps 754 mmHg 59%
13:00 +24°C° 0 mm 3 mps 753 mmHg 57%
14:00 +24°C° 0 mm 3 mps 753 mmHg 59%
15:00 +22°C° 0 mm 3 mps 752 mmHg 60%
16:00 +22°C° 0 mm 4 mps 752 mmHg 62%
17:00 +21°C° 0 mm 3 mps 752 mmHg 66%
18:00 +20°C° 0 mm 3 mps 753 mmHg 70%
19:00 +19°C° 0 mm 3 mps 753 mmHg 75%
20:00 +19°C° 0 mm 2 mps 753 mmHg 75%
21:00 +19°C° 0 mm 2 mps 753 mmHg 75%
22:00 +19°C° 0 mm 2 mps 754 mmHg 76%
23:00 +19°C° 0 mm 2 mps 754 mmHg 75%

Tomorrow, 25 October, Sunday

Time Temperature Precipitation Wind Pressure Humidity
00:00 +19°C° 0 mm 2 mps 753 mmHg 74%
01:00 +20°C° 0 mm 1 mps 753 mmHg 73%
02:00 +20°C° 0 mm 1 mps 753 mmHg 73%
03:00 +18°C° 0 mm 2 mps 753 mmHg 73%
04:00 +18°C° 0 mm 2 mps 753 mmHg 73%
05:00 +18°C° 0 mm 2 mps 753 mmHg 72%
06:00 +18°C° 0 mm 2 mps 753 mmHg 72%
07:00 +18°C° 0 mm 2 mps 753 mmHg 71%
08:00 +18°C° 0 mm 2 mps 753 mmHg 70%
09:00 +19°C° 0 mm 2 mps 753 mmHg 69%
10:00 +19°C° 0 mm 2 mps 753 mmHg 67%
11:00 +19°C° 0 mm 2 mps 753 mmHg 66%
12:00 +19°C° 0 mm 2 mps 753 mmHg 64%
13:00 +19°C° 0 mm 2 mps 752 mmHg 63%
14:00 +19°C° 0 mm 2 mps 752 mmHg 62%
15:00 +19°C° 0 mm 2 mps 752 mmHg 62%
16:00 +19°C° 0 mm 2 mps 751 mmHg 62%
17:00 +19°C° 0 mm 2 mps 752 mmHg 63%
18:00 +18°C° 0 mm 2 mps 752 mmHg 64%
19:00 +18°C° 0 mm 2 mps 753 mmHg 65%
20:00 +18°C° 0 mm 2 mps 753 mmHg 66%
21:00 +18°C° 0 mm 2 mps 753 mmHg 67%
22:00 +17°C° 0 mm 2 mps 754 mmHg 68%
23:00 +18°C° 0 mm 1 mps 754 mmHg 68%

Day after tomorrow, 26 October, Monday

Time Temperature Precipitation Wind Pressure Humidity
00:00 +18°C° 0 mm 1 mps 754 mmHg 68%
01:00 +18°C° 0 mm 1 mps 754 mmHg 68%
02:00 +18°C° 0 mm 1 mps 754 mmHg 67%
03:00 +18°C° 0 mm 1 mps 754 mmHg 67%
04:00 +18°C° 0 mm 1 mps 755 mmHg 67%
05:00 +18°C° 0 mm 1 mps 755 mmHg 62%
06:00 +18°C° 0 mm 1 mps 756 mmHg 58%
07:00 +18°C° 0 mm 1 mps 756 mmHg 53%
08:00 +20°C° 0 mm 1 mps 757 mmHg 46%
09:00 +20°C° 0 mm 2 mps 757 mmHg 39%
10:00 +23°C° 0 mm 2 mps 758 mmHg 32%
11:00 +24°C° 0 mm 2 mps 757 mmHg 27%
12:00 +25°C° 0 mm 2 mps 757 mmHg 23%
13:00 +26°C° 0 mm 2 mps 756 mmHg 19%
14:00 +25°C° 0 mm 2 mps 756 mmHg 18%
15:00 +25°C° 0 mm 2 mps 756 mmHg 18%
16:00 +25°C° 0 mm 3 mps 756 mmHg 18%
17:00 +24°C° 0 mm 2 mps 757 mmHg 19%
18:00 +23°C° 0 mm 2 mps 757 mmHg 20%
19:00 +21°C° 0 mm 2 mps 758 mmHg 21%
20:00 +21°C° 0 mm 2 mps 758 mmHg 19%
21:00 +21°C° 0 mm 2 mps 758 mmHg 16%
22:00 +20°C° 0 mm 2 mps 759 mmHg 14%
23:00 +20°C° 0 mm 2 mps 758 mmHg 13%

, 27 October, Tuesday

Time Temperature Precipitation Wind Pressure Humidity
00:00 +20°C° 0 mm 2 mps 758 mmHg 11%
01:00 +20°C° 0 mm 2 mps 758 mmHg 10%
02:00 +19°C° 0 mm 2 mps 758 mmHg 8%
03:00 +19°C° 0 mm 2 mps 758 mmHg 7%
04:00 +19°C° 0 mm 2 mps 758 mmHg 6%
05:00 +19°C° 0 mm 2 mps 758 mmHg 6%
06:00 +19°C° 0 mm 2 mps 758 mmHg 6%
07:00 +20°C° 0 mm 2 mps 759 mmHg 6%
08:00 +22°C° 0 mm 1 mps 759 mmHg 6%
09:00 +24°C° 0 mm 1 mps 759 mmHg 6%
10:00 +26°C° 0 mm 1 mps 759 mmHg 6%
11:00 +27°C° 0 mm 2 mps 759 mmHg 6%
12:00 +28°C° 0 mm 2 mps 758 mmHg 6%
13:00 +29°C° 0 mm 3 mps 757 mmHg 7%
14:00 +28°C° 0 mm 3 mps 757 mmHg 10%
15:00 +27°C° 0 mm 3 mps 757 mmHg 14%
16:00 +27°C° 0 mm 3 mps 757 mmHg 17%
17:00 +26°C° 0 mm 2 mps 757 mmHg 23%
18:00 +25°C° 0 mm 2 mps 757 mmHg 29%
19:00 +24°C° 0 mm 1 mps 758 mmHg 34%
20:00 +23°C° 0 mm 1 mps 758 mmHg 33%
21:00 +23°C° 0 mm 1 mps 758 mmHg 32%
22:00 +23°C° 0 mm 1 mps 758 mmHg 31%
23:00 +23°C° 0 mm 1 mps 758 mmHg 31%

27 October, Tuesday

Time Temperature Precipitation Wind Pressure Humidity
00:00 +20°C° 0 mm 2 mps 758 mmHg 11%
01:00 +20°C° 0 mm 2 mps 758 mmHg 10%
02:00 +19°C° 0 mm 2 mps 758 mmHg 8%
03:00 +19°C° 0 mm 2 mps 758 mmHg 7%
04:00 +19°C° 0 mm 2 mps 758 mmHg 6%
05:00 +19°C° 0 mm 2 mps 758 mmHg 6%
06:00 +19°C° 0 mm 2 mps 758 mmHg 6%
07:00 +20°C° 0 mm 2 mps 759 mmHg 6%
08:00 +22°C° 0 mm 1 mps 759 mmHg 6%
09:00 +24°C° 0 mm 1 mps 759 mmHg 6%
10:00 +26°C° 0 mm 1 mps 759 mmHg 6%
11:00 +27°C° 0 mm 2 mps 759 mmHg 6%
12:00 +28°C° 0 mm 2 mps 758 mmHg 6%
13:00 +29°C° 0 mm 3 mps 757 mmHg 7%
14:00 +28°C° 0 mm 3 mps 757 mmHg 10%
15:00 +27°C° 0 mm 3 mps 757 mmHg 14%
16:00 +27°C° 0 mm 3 mps 757 mmHg 17%
17:00 +26°C° 0 mm 2 mps 757 mmHg 23%
18:00 +25°C° 0 mm 2 mps 757 mmHg 29%
19:00 +24°C° 0 mm 1 mps 758 mmHg 34%
20:00 +23°C° 0 mm 1 mps 758 mmHg 33%
21:00 +23°C° 0 mm 1 mps 758 mmHg 32%
22:00 +23°C° 0 mm 1 mps 758 mmHg 31%
23:00 +23°C° 0 mm 1 mps 758 mmHg 31%

28 October, Wednesday

Time Temperature Precipitation Wind Pressure Humidity
00:00 +23°C° 0 mm 1 mps 757 mmHg 32%
01:00 +22°C° 0 mm 1 mps 757 mmHg 32%
02:00 +22°C° 0 mm 1 mps 757 mmHg 29%
03:00 +22°C° 0 mm 1 mps 757 mmHg 26%
04:00 +22°C° 0 mm 1 mps 757 mmHg 23%
05:00 +23°C° 0 mm 1 mps 757 mmHg 21%
06:00 +23°C° 0 mm 1 mps 757 mmHg 19%
07:00 +23°C° 0 mm 1 mps 757 mmHg 17%
08:00 +25°C° 0 mm 1 mps 757 mmHg 15%
09:00 +27°C° 0 mm 1 mps 757 mmHg 14%
10:00 +27°C° 0 mm 0 mps 757 mmHg 12%
11:00 +29°C° 0 mm 1 mps 756 mmHg 12%
12:00 +30°C° 0 mm 2 mps 756 mmHg 11%
13:00 +31°C° 0 mm 2 mps 755 mmHg 10%
14:00 +30°C° 0 mm 2 mps 755 mmHg 12%
15:00 +30°C° 0 mm 3 mps 755 mmHg 14%
16:00 +29°C° 0 mm 3 mps 754 mmHg 16%
17:00 +28°C° 0 mm 2 mps 755 mmHg 18%
18:00 +26°C° 0 mm 2 mps 755 mmHg 20%
19:00 +25°C° 0 mm 1 mps 755 mmHg 23%
20:00 +25°C° 0 mm 1 mps 755 mmHg 23%
21:00 +25°C° 0 mm 1 mps 756 mmHg 23%
22:00 +24°C° 0 mm 1 mps 756 mmHg 24%
23:00 +24°C° 0 mm 1 mps 756 mmHg 23%

29 October, Thursday

Time Temperature Precipitation Wind Pressure Humidity
00:00 +24°C° 0 mm 1 mps 755 mmHg 23%
01:00 +24°C° 0 mm 1 mps 755 mmHg 22%
02:00 +24°C° 0 mm 1 mps 755 mmHg 22%
03:00 +23°C° 0 mm 1 mps 755 mmHg 21%
04:00 +21°C° 0 mm 0 mps 755 mmHg 21%
05:00 +23°C° 0 mm 1 mps 755 mmHg 19%
06:00 +24°C° 0 mm 1 mps 755 mmHg 18%
07:00 +24°C° 0 mm 1 mps 756 mmHg 17%
08:00 +26°C° 0 mm 1 mps 756 mmHg 15%
09:00 +26°C° 0 mm 0 mps 756 mmHg 14%
10:00 +27°C° 0 mm 0 mps 756 mmHg 12%
11:00 +30°C° 0 mm 1 mps 755 mmHg 12%
12:00 +31°C° 0 mm 2 mps 755 mmHg 11%
13:00 +31°C° 0 mm 2 mps 754 mmHg 11%
14:00 +31°C° 0 mm 2 mps 754 mmHg 13%
15:00 +30°C° 0 mm 2 mps 754 mmHg 15%
16:00 +29°C° 0 mm 3 mps 754 mmHg 17%
17:00 +28°C° 0 mm 2 mps 754 mmHg 19%
18:00 +27°C° 0 mm 1 mps 755 mmHg 21%
19:00 +26°C° 0 mm 1 mps 755 mmHg 23%
20:00 +26°C° 0 mm 1 mps 755 mmHg 23%
21:00 +25°C° 0 mm 1 mps 756 mmHg 23%
22:00 +25°C° 0 mm 1 mps 756 mmHg 24%
23:00 +25°C° 0 mm 1 mps 756 mmHg 23%
Show more

We Need Your Consent

Meteoprog and our Service Providers may store and access personal data such as cookies, device identifiers or other similar technologies on your device and process such data to personalise content and ads, as well as provide social media features and to analyse the traffic.

  • Store and/or access information on your device

    Cookies, device identifiers or other information can be stored or accessed on your device for the purposes indicated above.

  • Personalised ads and content, ad and content measurement, audience insights, and products development

    Ads and content can be personalised based on a profile. More data can be added to better personalise ads and content. Ad and content performance can be measured. Insights about the audience who saw the ads and content can be derived. Such data can be used to develop or improve user’s experience, systems and software.

By clicking ‘I Agree’ you will allow the use of indicated cookies, device identifiers, web beacons or other similar technologies. Your settings can be changed in the browser on your device.

For certain purposes, legitimate interests may be relied on, rather than consent. You can read more about this in our Privacy and Cookie Policy.